Home > Weather > Modena > Past weeks

Flag for Italy Past Weather in Modena, Italy — Yesterday and Last 2 Weeks

Now
61 °F

Clear.


Feels Like: 61 °F
Forecast: 60 / 75 °F
Wind: 3 mph from Southwest

Location: Bologna / Borgo Panigale

Current Time: May 28, 2016 at 6:17:59 AM

Latest Report: May 28, 2016 at 5:50 AM


Visibility: 10 mi

Pressure: 29.95 "Hg

Humidity: 88%

Dew Point: 57 °F

Location of ModenaLocation

Past Weather in Modena — Graph

°F

Modena Temperature Yesterday

Maximum temperature yesterday: 81 °F (at 1:50 PM)
Minimum temperature yesterday: 59 °F (at 4:50 AM)
Average temperature yesterday: 71 °F

High & Low Weather Summary for the Past Weeks

 TemperatureHumidityPressure
High81 °F (May 22, 1:50 PM)100% (May 13, 4:50 AM)30.12 "Hg (May 13, 4:50 AM)
Low48 °F (May 17, 5:50 AM)32% (May 24, 3:50 PM)29.47 "Hg (May 13, 4:20 AM)
Average64 °F64%29.90 "Hg
* Reported May 13 4:20 AM — May 28 4:50 AM, Modena, Weather by CustomWeather, © 2016

Note: Actual official high and low records may vary slightly from our data, if they occured in-between our weather recording intervals... More about our weather records

Advertising

Modena Weather History for the Previous 24 Hours

Scroll right to see more
 ConditionsComfort  
Time TempWeatherWind HumidityBarometerVisibility
4:50 AM
Sat, May 28
61 °FClear.No wind88%29.98 "Hg10 mi
3:50 AM59 °FClear.2 mph94%29.98 "Hg10 mi
3:20 AM61 °FClear.2 mph88%29.98 "Hg10 mi
2:50 AM59 °FClear.2 mph88%29.95 "Hg10 mi
1:50 AM63 °FClear.2 mph88%29.95 "Hg10 mi
1:20 AM61 °FClear.3 mph83%29.95 "Hg10 mi
12:50 AM64 °FClear.1 mph78%29.98 "Hg10 mi
12:20 AM66 °FPassing clouds.3 mph73%29.98 "HgN/A
11:50 PM
Fri, May 27
66 °FClear.2 mph73%29.98 "Hg10 mi
11:20 PM66 °FClear.2 mph73%29.98 "Hg10 mi
10:50 PM68 °FClear.3 mph69%29.98 "Hg10 mi
10:20 PM68 °FClear.5 mph69%29.98 "Hg10 mi
9:50 PM68 °FClear.6 mph73%29.98 "Hg10 mi
9:20 PM72 °FSunny.6 mph65%29.98 "Hg10 mi
8:50 PM72 °FSunny.7 mph65%29.98 "Hg10 mi
8:20 PM73 °FSunny.7 mph61%29.98 "Hg10 mi
7:50 PM75 °FSunny.8 mph61%29.98 "Hg10 mi
7:20 PM77 °FSunny.8 mph57%29.98 "Hg10 mi
6:50 PM77 °FSunny.8 mph57%29.98 "Hg10 mi
6:20 PM79 °FSunny.9 mph51%29.98 "Hg10 mi
5:50 PM79 °FPassing clouds.9 mph48%29.98 "HgN/A
5:20 PM79 °FPassing clouds.9 mph51%29.98 "HgN/A
4:50 PM81 °FPassing clouds.10 mph45%29.98 "HgN/A
4:20 PM81 °FPassing clouds.10 mph45%29.98 "HgN/A
3:50 PM81 °FPassing clouds.10 mph45%29.98 "HgN/A
3:20 PM81 °FPassing clouds.13 mph45%29.98 "HgN/A
2:50 PM81 °FPassing clouds.10 mph48%29.98 "HgN/A
2:20 PM81 °FSunny.10 mph45%29.98 "Hg10 mi
1:50 PM81 °FPassing clouds.8 mph48%29.98 "HgN/A
1:20 PM79 °FPassing clouds.9 mph48%29.98 "HgN/A
12:50 PM79 °FPassing clouds.9 mph51%30.01 "HgN/A
12:20 PM79 °FPassing clouds.9 mph54%30.01 "HgN/A
11:50 AM77 °FPassing clouds.8 mph51%30.01 "HgN/A
11:20 AM75 °FPassing clouds.6 mph57%30.01 "HgN/A
10:50 AM73 °FPassing clouds.5 mph57%30.04 "HgN/A
10:20 AM73 °FPassing clouds.5 mph61%30.04 "HgN/A
9:50 AM73 °FSunny.2 mph61%30.04 "Hg10 mi
9:20 AM72 °FSunny.2 mph61%30.04 "Hg10 mi
8:50 AM72 °FSunny.1 mph57%30.04 "Hg10 mi
8:20 AM70 °FSunny.1 mph64%30.04 "Hg10 mi
7:50 AM66 °FPassing clouds.3 mph68%30.04 "HgN/A
7:20 AM63 °FSunny.5 mph73%30.04 "Hg10 mi
6:50 AM61 °FSunny.7 mph77%30.04 "Hg10 mi
6:20 AM61 °FClear.7 mph77%30.01 "Hg10 mi
Weather by CustomWeather, © 2016

See weather overviewHow to use our weather pages